Wind_Speed
23 25 28 31 33 35 37 40 41 42 42 41 42 43 43 43 41 41 41 42 42 41 40 39 38 37 34 33 32 30 29 28 27 26 25 24 24 23
20 23 26 28 31 33 35 38 40 42 42 43 43 44 44 45 45 44 42 42 42 42 41 40 39 38 37 36 34 33 32 30 29 28 27 27 26 26
18 21 24 27 29 32 34 36 39 41 42 43 45 45 45 46 46 46 47 45 44 43 43 42 41 40 40 38 37 36 35 34 32 31 30 29 28 27
15 18 21 24 27 30 32 34 38 40 41 43 45 46 47 46 47 47 46 47 47 46 46 45 43 42 42 41 40 38 37 36 35 34 33 31 31 29
14 16 18 21 24 27 30 33 35 38 40 42 45 46 47 47 47 47 47 47 46 46 46 46 45 44 43 41 40 39 38 38 37 36 35 33 32 31
13 14 16 19 21 24 28 31 33 35 37 39 42 45 46 47 47 47 47 47 46 47 46 46 45 45 45 43 42 40 39 38 38 37 36 34 33 32
14 13 14 16 18 20 23 27 30 32 34 36 39 42 44 44 45 46 47 46 46 46 46 46 46 45 45 44 43 41 41 40 39 38 36 36 35 33
14 14 13 13 15 17 20 22 26 29 32 33 36 39 41 43 44 45 47 47 46 47 46 45 45 45 43 43 43 42 41 41 40 39 38 37 36 35
15 14 13 13 13 14 16 19 22 25 28 30 33 35 38 41 43 44 45 47 46 47 48 46 45 44 44 44 43 42 42 41 41 40 39 38 36 35
15 14 13 13 13 13 14 16 19 22 24 27 29 32 35 38 40 43 43 45 46 47 48 47 45 45 45 44 44 43 43 44 43 42 40 39 37 36
16 15 14 14 13 12 12 14 16 20 22 24 27 29 32 34 36 38 40 41 43 44 45 46 46 45 45 45 45 44 44 44 43 42 41 40 39 37
17 16 15 14 14 12 12 12 13 16 19 22 24 26 28 31 33 34 36 38 40 40 42 43 44 45 45 44 44 44 43 43 43 42 42 40 39 39
19 17 16 15 13 12 11 11 12 13 16 18 21 23 25 27 30 32 33 35 36 37 39 41 42 42 42 42 42 42 42 43 42 42 42 42 41 39
19 18 16 15 14 13 12 11 11 12 13 16 19 21 23 25 27 29 32 34 35 36 37 39 39 39 40 40 40 41 41 42 43 43 43 42 41 40
19 18 17 16 15 14 13 12 12 12 12 14 16 18 21 23 25 27 30 32 34 34 35 37 38 38 39 40 39 40 41 41 42 43 43 43 42 41
19 19 18 17 16 15 14 13 13 12 12 13 14 16 18 20 22 25 27 30 32 33 35 35 37 38 38 39 39 39 40 40 40 41 41 41 40 40
20 20 19 18 17 16 15 15 14 13 13 13 13 14 16 18 20 22 25 27 29 32 33 35 36 37 38 38 39 39 39 39 39 39 40 40 39 38
20 20 20 19 18 18 17 16 15 15 15 15 15 15 16 17 18 20 23 25 27 28 30 32 34 35 36 37 37 38 38 39 38 39 39 38 37 38
22 21 21 20 20 19 19 18 18 17 17 17 17 17 17 18 19 19 21 23 25 27 29 30 31 33 34 35 35 37 36 37 38 38 37 37 37 37
23 23 23 22 22 21 21 20 20 19 19 19 19 19 19 20 20 20 21 22 23 25 26 28 29 31 32 33 34 34 35 35 36 36 36 36 37 37
25 25 25 25 24 24 23 23 23 22 22 21 21 21 20 21 21 21 21 21 22 23 24 26 28 29 30 32 33 33 33 34 36 36 36 36 36 36
28 28 28 28 27 27 27 27 26 26 25 25 24 23 23 22 22 23 23 23 23 24 25 25 26 28 29 30 31 32 33 34 35 35 36 36 37 36
30 31 31 31 31 30 30 30 30 30 29 29 28 27 26 25 25 25 25 25 25 25 26 26 27 28 29 30 31 31 33 33 34 35 36 36 36 35
Wind_Direction
249 244 241 240 239 237 236 235 233 232 232 231 232 231 230 230 230 230 232 234 233 234 234 235 236 238 240 241 242 246 249 252 257 261 265 269 272 276
254 249 245 242 241 240 239 237 235 233 232 231 232 231 232 232 232 232 233 233 233 235 235 235 236 238 240 242 244 247 249 252 255 260 263 267 271 273
259 254 250 247 244 242 241 238 236 234 232 231 233 233 232 233 233 233 233 234 234 235 236 237 238 239 240 241 244 246 249 252 255 259 262 265 268 271
272 262 256 252 248 245 242 240 237 235 233 231 232 233 234 234 234 234 234 235 235 236 236 238 238 239 239 241 244 245 248 251 254 258 260 263 266 269
289 276 265 258 253 248 245 242 239 236 234 232 233 234 235 235 235 235 236 236 236 237 237 237 237 238 239 242 244 246 248 250 254 258 259 260 263 266
305 290 277 267 258 252 247 243 241 238 236 234 234 235 235 236 235 235 236 235 236 236 237 238 238 239 240 243 244 245 247 250 253 256 258 258 261 264
320 307 293 280 268 258 251 246 243 240 238 236 235 235 236 236 235 235 234 234 235 236 238 238 239 240 242 241 243 245 247 250 252 253 254 257 261 263
334 323 311 299 285 270 258 252 246 242 239 238 236 236 236 237 236 236 235 235 235 235 237 238 240 241 241 241 242 244 246 248 251 252 253 256 259 261
342 335 325 317 304 287 270 259 251 246 243 241 240 238 237 237 238 238 237 236 236 236 236 238 240 240 241 242 243 244 246 248 250 251 252 254 257 259
343 339 330 323 315 301 282 267 256 250 246 243 241 239 238 238 238 239 238 237 237 237 237 238 238 240 241 242 243 244 246 247 249 250 251 252 256 257
341 337 331 325 319 310 295 277 263 253 248 245 243 240 239 239 239 239 239 238 238 238 238 237 238 239 241 243 243 243 245 246 247 248 250 251 252 253
341 338 334 329 323 316 306 291 273 261 254 249 245 242 241 239 239 239 239 238 238 239 239 239 239 240 241 242 244 244 245 245 245 246 247 248 249 250
339 338 337 334 330 324 313 303 289 274 264 254 247 244 242 241 240 239 239 239 239 239 239 239 239 240 240 241 242 241 242 243 244 244 244 246 247 247
337 337 336 335 332 328 322 312 301 289 276 264 254 249 247 244 242 240 239 238 238 239 240 239 239 238 239 239 240 240 239 240 242 241 242 243 243 244
332 333 333 332 330 327 323 317 309 299 287 275 264 256 252 250 247 244 242 240 239 239 239 240 239 238 239 239 240 240 240 239 240 240 241 241 242 244
327 329 328 328 326 323 320 316 310 302 293 285 274 264 256 251 249 247 245 244 240 239 239 239 240 240 240 239 240 240 240 239 238 238 238 240 240 241
321 322 324 324 325 321 316 312 308 303 298 294 284 275 267 258 254 251 248 247 243 242 241 242 241 241 240 240 240 240 241 241 240 238 238 239 239 239
313 315 316 317 318 318 315 311 305 300 297 294 289 280 275 270 262 256 251 249 246 244 244 244 243 242 241 240 240 239 239 237 239 239 238 238 239 240
308 309 309 309 310 311 311 309 305 300 295 292 289 283 277 271 267 263 257 252 250 247 245 245 243 241 240 240 240 240 241 240 238 238 238 238 239 241
305 304 304 304 303 302 302 302 301 298 294 289 287 284 280 274 269 266 262 258 254 250 246 244 243 241 241 242 240 240 240 239 238 238 237 237 238 239
302 301 300 299 298 298 297 296 295 294 292 289 285 283 281 276 270 267 263 259 257 253 251 247 244 243 244 244 243 241 239 239 238 237 236 238 238 237
300 299 297 296 295 294 293 291 290 289 288 286 284 281 279 276 271 266 263 260 258 255 253 249 244 244 245 242 241 240 238 238 237 236 237 238 237 236
298 297 296 295 293 292 290 288 286 285 284 282 281 278 276 273 271 267 263 261 259 255 252 249 246 245 246 243 241 240 238 237 236 235 235 236 236 236
Height
5758 5760 5762 5765 5768 5771 5775 5779 5783 5787 5792 5796 5801 5805 5809 5813 5817 5821 5825 5829 5833 5837 5840 5844 5847 5850 5853 5856 5858 5860 5862 5864 5866 5866 5867 5867 5868 5867
5751 5753 5755 5757 5759 5761 5765 5768 5772 5777 5782 5786 5790 5795 5799 5804 5808 5812 5816 5820 5823 5827 5831 5835 5839 5842 5845 5848 5851 5853 5856 5857 5859 5860 5861 5861 5862 5862
5745 5746 5747 5748 5750 5752 5755 5758 5762 5766 5771 5776 5779 5784 5788 5793 5798 5802 5806 5810 5815 5819 5823 5826 5830 5834 5837 5840 5843 5845 5848 5850 5852 5853 5854 5855 5855 5855
5739 5739 5740 5741 5742 5743 5746 5748 5752 5755 5761 5765 5769 5773 5778 5782 5787 5791 5796 5800 5805 5809 5813 5817 5820 5824 5828 5831 5834 5837 5840 5842 5844 5846 5847 5848 5848 5848
5734 5734 5733 5733 5734 5735 5737 5739 5742 5745 5750 5755 5758 5762 5766 5771 5776 5780 5785 5790 5794 5798 5802 5806 5810 5814 5818 5821 5825 5828 5831 5833 5836 5837 5839 5840 5841 5841
5730 5728 5727 5726 5726 5727 5728 5730 5733 5736 5740 5744 5748 5752 5756 5760 5765 5770 5775 5779 5784 5788 5792 5796 5800 5804 5808 5812 5815 5818 5821 5824 5827 5829 5830 5832 5833 5834
5726 5724 5722 5721 5720 5720 5721 5722 5724 5727 5731 5734 5738 5742 5746 5750 5755 5759 5763 5768 5772 5777 5781 5786 5790 5794 5797 5801 5805 5809 5812 5815 5817 5820 5821 5823 5824 5826
5723 5721 5718 5717 5715 5715 5714 5715 5717 5719 5722 5725 5729 5733 5736 5740 5743 5748 5752 5758 5763 5768 5770 5775 5778 5782 5787 5791 5795 5798 5801 5804 5807 5810 5812 5814 5816 5817
5721 5718 5716 5714 5712 5710 5709 5709 5710 5712 5714 5718 5721 5723 5726 5730 5734 5738 5742 5746 5751 5755 5759 5764 5768 5772 5777 5781 5784 5788 5791 5794 5797 5800 5802 5805 5807 5808
5719 5716 5713 5711 5708 5706 5705 5704 5704 5705 5707 5710 5712 5715 5717 5720 5724 5728 5731 5735 5740 5744 5748 5753 5757 5762 5766 5769 5774 5777 5780 5784 5787 5789 5792 5795 5797 5799
5718 5714 5711 5708 5705 5703 5701 5700 5700 5700 5701 5703 5705 5706 5709 5711 5714 5717 5721 5726 5730 5734 5737 5742 5746 5750 5754 5758 5762 5766 5769 5772 5776 5779 5782 5784 5787 5789
5716 5712 5709 5705 5702 5700 5698 5696 5695 5695 5696 5697 5698 5700 5701 5703 5706 5709 5712 5716 5720 5724 5727 5731 5735 5738 5743 5747 5751 5754 5758 5761 5764 5768 5771 5774 5776 5778
5714 5710 5707 5703 5700 5698 5695 5694 5692 5691 5691 5692 5692 5694 5695 5697 5698 5701 5704 5707 5711 5715 5718 5720 5724 5728 5732 5736 5740 5743 5747 5750 5754 5757 5760 5763 5766 5768
5712 5708 5705 5702 5699 5696 5694 5692 5690 5688 5687 5687 5688 5688 5689 5690 5691 5693 5696 5698 5702 5705 5708 5711 5714 5718 5721 5725 5729 5733 5736 5739 5743 5746 5749 5752 5755 5757
5710 5706 5703 5700 5697 5694 5692 5689 5687 5685 5684 5683 5683 5683 5683 5684 5685 5687 5688 5691 5693 5696 5699 5702 5705 5708 5711 5715 5718 5722 5725 5728 5731 5735 5738 5741 5744 5747
5707 5704 5700 5697 5694 5692 5689 5687 5685 5683 5681 5680 5679 5678 5678 5679 5679 5680 5681 5683 5685 5688 5690 5692 5695 5698 5701 5705 5708 5710 5714 5717 5720 5724 5727 5730 5733 5736
5703 5700 5697 5694 5692 5689 5687 5684 5682 5680 5679 5677 5676 5675 5674 5674 5674 5674 5675 5676 5678 5680 5682 5684 5686 5689 5691 5694 5697 5701 5704 5707 5710 5713 5716 5719 5723 5726
5699 5697 5694 5691 5688 5686 5683 5681 5679 5677 5675 5674 5672 5671 5670 5669 5669 5668 5669 5669 5670 5672 5674 5676 5677 5679 5682 5685 5688 5691 5694 5697 5700 5703 5706 5709 5712 5716
5694 5692 5689 5687 5684 5682 5679 5677 5675 5673 5671 5670 5668 5667 5665 5664 5663 5663 5662 5663 5663 5665 5666 5667 5669 5671 5673 5676 5679 5682 5685 5687 5690 5693 5696 5700 5703 5706
5688 5686 5684 5681 5679 5677 5674 5672 5670 5668 5666 5665 5663 5662 5660 5659 5658 5657 5657 5656 5657 5657 5658 5660 5661 5663 5665 5668 5670 5673 5676 5678 5681 5684 5687 5690 5693 5696
5682 5679 5677 5675 5672 5670 5668 5666 5664 5662 5661 5659 5658 5656 5655 5653 5652 5652 5651 5651 5651 5651 5651 5652 5654 5656 5657 5659 5661 5663 5666 5669 5672 5675 5678 5681 5684 5687
5674 5671 5669 5667 5665 5663 5661 5659 5657 5655 5653 5652 5651 5650 5648 5647 5646 5646 5645 5645 5644 5644 5645 5645 5646 5647 5649 5651 5652 5655 5657 5660 5663 5666 5669 5673 5675 5678
5665 5663 5660 5658 5656 5654 5652 5650 5648 5647 5645 5644 5643 5642 5641 5640 5639 5639 5638 5638 5638 5637 5637 5638 5639 5640 5641 5643 5645 5647 5649 5652 5655 5657 5661 5663 5666 5670